Time,TemperatureF,DewpointF,PressureIn,WindDirection,WindDirectionDegrees,WindSpeedMPH,WindSpeedGustMPH,Humidity,HourlyPrecipIn,Conditions,Clouds,dailyrainin,SoftwareType,DateUTC
2013-02-19 00:00:00,20.7,13.1,29.95,SE,126,4.0,9.0,72,0.00,,,0.00,Wunderground v.1.15,2013-02-19 05:00:00,
2013-02-19 00:05:00,21.0,13.1,29.95,SE,135,4.0,9.0,71,0.00,,,0.00,Wunderground v.1.15,2013-02-19 05:05:00,
2013-02-19 00:10:00,21.2,12.9,29.95,SE,134,5.0,5.0,70,0.00,,,0.00,Wunderground v.1.15,2013-02-19 05:10:00,
2013-02-19 00:15:00,21.3,12.7,29.96,SE,134,4.0,9.0,69,0.00,,,0.00,Wunderground v.1.15,2013-02-19 05:15:00,
2013-02-19 00:20:00,21.3,12.7,29.95,SE,132,4.0,9.0,69,0.00,,,0.00,Wunderground v.1.15,2013-02-19 05:20:00,
2013-02-19 00:25:00,21.4,12.8,29.95,SE,132,4.0,9.0,69,0.00,,,0.00,Wunderground v.1.15,2013-02-19 05:25:00,
2013-02-19 00:30:00,21.6,13.3,29.95,SE,136,5.0,5.0,70,0.00,,,0.00,Wunderground v.1.15,2013-02-19 05:30:00,
2013-02-19 00:35:00,21.7,13.1,29.94,SE,135,5.0,9.0,69,0.00,,,0.00,Wunderground v.1.15,2013-02-19 05:35:00,
2013-02-19 00:40:00,21.8,12.9,29.95,SE,136,5.0,5.0,68,0.00,,,0.00,Wunderground v.1.15,2013-02-19 05:40:00,
2013-02-19 00:45:00,21.9,13.3,29.94,SE,138,5.0,6.0,69,0.00,,,0.00,Wunderground v.1.15,2013-02-19 05:45:00,
2013-02-19 00:50:00,22.2,13.2,29.94,SE,142,5.0,9.0,68,0.00,,,0.00,Wunderground v.1.15,2013-02-19 05:50:00,
2013-02-19 00:55:00,22.4,13.4,29.94,SE,137,6.0,9.0,68,0.00,,,0.00,Wunderground v.1.15,2013-02-19 05:55:00,
2013-02-19 01:05:00,22.4,13.4,29.93,SE,141,6.0,9.0,68,0.00,,,0.00,Wunderground v.1.15,2013-02-19 06:05:00,
2013-02-19 01:10:00,22.5,13.2,29.93,SSE,154,7.0,7.0,67,0.00,,,0.00,Wunderground v.1.15,2013-02-19 06:10:00,
2013-02-19 01:15:00,22.5,13.2,29.93,SE,130,6.0,9.0,67,0.00,,,0.00,Wunderground v.1.15,2013-02-19 06:15:00,
2013-02-19 01:20:00,22.5,13.2,29.93,SE,128,6.0,6.0,67,0.00,,,0.00,Wunderground v.1.15,2013-02-19 06:20:00,
2013-02-19 01:25:00,22.7,13.4,29.92,SSE,148,7.0,7.0,67,0.00,,,0.00,Wunderground v.1.15,2013-02-19 06:25:00,
2013-02-19 01:35:00,23.1,13.4,29.93,ESE,123,8.0,9.0,66,0.00,,,0.00,Wunderground v.1.15,2013-02-19 06:35:00,
2013-02-19 01:40:00,23.0,13.3,29.92,SE,140,7.0,9.0,66,0.00,,,0.00,Wunderground v.1.15,2013-02-19 06:40:00,
2013-02-19 01:45:00,23.0,13.3,29.92,SSE,150,6.0,9.0,66,0.00,,,0.00,Wunderground v.1.15,2013-02-19 06:45:00,
2013-02-19 01:50:00,23.0,13.3,29.92,SE,144,6.0,6.0,66,0.00,,,0.00,Wunderground v.1.15,2013-02-19 06:50:00,
2013-02-19 01:55:00,22.9,13.2,29.92,SE,128,6.0,9.0,66,0.00,,,0.00,Wunderground v.1.15,2013-02-19 06:55:00,
2013-02-19 02:00:00,22.9,13.2,29.91,SE,138,6.0,9.0,66,0.00,,,0.00,Wunderground v.1.15,2013-02-19 07:00:00,
2013-02-19 02:10:00,23.0,13.3,29.91,SE,145,6.0,9.0,66,0.00,,,0.00,Wunderground v.1.15,2013-02-19 07:10:00,
2013-02-19 02:15:00,23.2,13.5,29.91,SE,125,7.0,9.0,66,0.00,,,0.00,Wunderground v.1.15,2013-02-19 07:15:00,
2013-02-19 02:20:00,23.3,13.6,29.90,SE,142,7.0,9.0,66,0.00,,,0.00,Wunderground v.1.15,2013-02-19 07:20:00,
2013-02-19 02:25:00,23.3,14.0,29.90,SE,125,7.0,9.0,67,0.00,,,0.00,Wunderground v.1.15,2013-02-19 07:25:00,
2013-02-19 02:30:00,23.3,14.0,29.90,SE,130,7.0,7.0,67,0.00,,,0.00,Wunderground v.1.15,2013-02-19 07:30:00,
2013-02-19 02:40:00,23.4,13.7,29.89,SE,136,8.0,9.0,66,0.00,,,0.00,Wunderground v.1.15,2013-02-19 07:40:00,
2013-02-19 02:45:00,23.5,13.8,29.89,SE,146,8.0,9.0,66,0.00,,,0.00,Wunderground v.1.15,2013-02-19 07:45:00,
2013-02-19 02:50:00,23.4,13.7,29.89,SE,126,8.0,9.0,66,0.00,,,0.00,Wunderground v.1.15,2013-02-19 07:50:00,
2013-02-19 02:55:00,23.5,13.8,29.89,SE,140,8.0,9.0,66,0.00,,,0.00,Wunderground v.1.15,2013-02-19 07:55:00,
2013-02-19 03:00:00,23.5,13.8,29.89,SSE,149,8.0,8.0,66,0.00,,,0.00,Wunderground v.1.15,2013-02-19 08:00:00,
2013-02-19 03:10:00,23.4,13.7,29.88,SE,136,7.0,9.0,66,0.00,,,0.00,Wunderground v.1.15,2013-02-19 08:10:00,
2013-02-19 03:15:00,23.4,13.7,29.88,SE,140,6.0,9.0,66,0.00,,,0.00,Wunderground v.1.15,2013-02-19 08:15:00,
2013-02-19 03:20:00,23.4,13.7,29.88,SE,125,6.0,6.0,66,0.00,,,0.00,Wunderground v.1.15,2013-02-19 08:20:00,
2013-02-19 03:25:00,23.6,13.9,29.87,SE,126,6.0,9.0,66,0.00,,,0.00,Wunderground v.1.15,2013-02-19 08:25:00,
2013-02-19 03:30:00,23.7,14.0,29.87,SE,140,6.0,9.0,66,0.00,,,0.00,Wunderground v.1.15,2013-02-19 08:30:00,
2013-02-19 03:35:00,23.8,14.1,29.87,SE,130,6.0,9.0,66,0.00,,,0.00,Wunderground v.1.15,2013-02-19 08:35:00,
2013-02-19 03:45:00,23.9,14.5,29.87,SE,128,4.0,9.0,67,0.00,,,0.00,Wunderground v.1.15,2013-02-19 08:45:00,
2013-02-19 03:55:00,24.6,14.9,29.86,ESE,121,4.0,9.0,66,0.00,,,0.00,Wunderground v.1.15,2013-02-19 08:55:00,
2013-02-19 04:05:00,25.2,14.7,29.86,ESE,107,3.0,9.0,64,0.00,,,0.00,Wunderground v.1.15,2013-02-19 09:05:00,
2013-02-19 04:15:00,24.9,14.8,29.85,ESE,120,4.0,9.0,65,0.00,,,0.00,Wunderground v.1.15,2013-02-19 09:15:00,
2013-02-19 04:20:00,24.8,15.0,29.85,SE,130,4.0,9.0,66,0.00,,,0.00,Wunderground v.1.15,2013-02-19 09:20:00,
2013-02-19 04:25:00,25.0,15.2,29.84,ESE,121,4.0,9.0,66,0.00,,,0.00,Wunderground v.1.15,2013-02-19 09:25:00,
2013-02-19 04:30:00,25.2,15.4,29.84,SE,124,5.0,5.0,66,0.00,,,0.00,Wunderground v.1.15,2013-02-19 09:30:00,
2013-02-19 04:35:00,25.4,15.6,29.84,SE,138,5.0,9.0,66,0.00,,,0.00,Wunderground v.1.15,2013-02-19 09:35:00,
2013-02-19 04:45:00,25.8,16.3,29.84,ESE,119,5.0,9.0,67,0.00,,,0.00,Wunderground v.1.15,2013-02-19 09:45:00,
2013-02-19 04:50:00,25.9,16.4,29.83,SE,146,5.0,9.0,67,0.00,,,0.00,Wunderground v.1.15,2013-02-19 09:50:00,
2013-02-19 04:55:00,25.8,16.3,29.83,ESE,122,5.0,9.0,67,0.00,,,0.00,Wunderground v.1.15,2013-02-19 09:55:00,
2013-02-19 05:00:00,25.6,15.8,29.83,SE,137,5.0,5.0,66,0.00,,,0.00,Wunderground v.1.15,2013-02-19 10:00:00,
2013-02-19 05:05:00,25.3,15.9,29.83,SE,127,5.0,9.0,67,0.00,,,0.00,Wunderground v.1.15,2013-02-19 10:05:00,
2013-02-19 05:15:00,24.6,15.5,29.82,SE,128,4.0,9.0,68,0.00,,,0.00,Wunderground v.1.15,2013-02-19 10:15:00,
2013-02-19 05:20:00,24.4,15.3,29.82,SE,128,4.0,4.0,68,0.00,,,0.00,Wunderground v.1.15,2013-02-19 10:20:00,
2013-02-19 05:25:00,24.4,15.3,29.81,SE,128,4.0,9.0,68,0.00,,,0.00,Wunderground v.1.15,2013-02-19 10:25:00,
2013-02-19 05:30:00,24.3,15.3,29.81,SE,125,4.0,9.0,68,0.00,,,0.00,Wunderground v.1.15,2013-02-19 10:30:00,
2013-02-19 05:35:00,24.3,15.6,29.80,ESE,122,5.0,9.0,69,0.00,,,0.00,Wunderground v.1.15,2013-02-19 10:35:00,
2013-02-19 05:45:00,24.3,15.6,29.80,SE,128,6.0,9.0,69,0.00,,,0.00,Wunderground v.1.15,2013-02-19 10:45:00,
2013-02-19 05:50:00,24.2,15.5,29.80,SE,126,6.0,6.0,69,0.00,,,0.00,Wunderground v.1.15,2013-02-19 10:50:00,
2013-02-19 06:00:00,24.2,15.5,29.79,ESE,112,6.0,6.0,69,0.00,,,0.00,Wunderground v.1.15,2013-02-19 11:00:00,
2013-02-19 06:05:00,24.1,15.7,29.79,ESE,123,6.0,8.0,70,0.00,,,0.00,Wunderground v.1.15,2013-02-19 11:05:00,
2013-02-19 06:10:00,24.2,15.8,29.79,ESE,120,6.0,9.0,70,0.00,,,0.00,Wunderground v.1.15,2013-02-19 11:10:00,
2013-02-19 06:15:00,24.3,15.9,29.78,SE,132,6.0,9.0,70,0.00,,,0.00,Wunderground v.1.15,2013-02-19 11:15:00,
2013-02-19 06:20:00,24.4,16.0,29.78,SE,126,6.0,9.0,70,0.00,,,0.00,Wunderground v.1.15,2013-02-19 11:20:00,
2013-02-19 06:30:00,24.5,16.1,29.77,SE,128,6.0,6.0,70,0.00,,,0.00,Wunderground v.1.15,2013-02-19 11:30:00,
2013-02-19 06:40:00,24.9,16.5,29.77,SE,135,6.0,6.0,70,0.00,,,0.00,Wunderground v.1.15,2013-02-19 11:40:00,
2013-02-19 06:50:00,24.9,16.5,29.76,SE,140,5.0,5.0,70,0.00,,,0.00,Wunderground v.1.15,2013-02-19 11:50:00,
2013-02-19 06:55:00,24.7,16.3,29.76,SE,139,4.0,9.0,70,0.00,,,0.00,Wunderground v.1.15,2013-02-19 11:55:00,
2013-02-19 07:00:00,24.6,16.5,29.76,SE,139,3.0,9.0,71,0.00,,,0.00,Wunderground v.1.15,2013-02-19 12:00:00,
2013-02-19 07:05:00,24.5,16.8,29.76,SE,139,2.0,9.0,72,0.00,,,0.00,Wunderground v.1.15,2013-02-19 12:05:00,
2013-02-19 07:10:00,24.4,16.7,29.76,SE,139,2.0,2.0,72,0.00,,,0.00,Wunderground v.1.15,2013-02-19 12:10:00,
2013-02-19 07:20:00,24.5,17.1,29.75,SE,139,2.0,9.0,73,0.00,,,0.00,Wunderground v.1.15,2013-02-19 12:20:00,
2013-02-19 07:30:00,25.7,17.6,29.75,ESE,105,3.0,9.0,71,0.00,,,0.00,Wunderground v.1.15,2013-02-19 12:30:00,
2013-02-19 07:35:00,26.0,17.6,29.75,ESE,104,4.0,9.0,70,0.00,,,0.00,Wunderground v.1.15,2013-02-19 12:35:00,
2013-02-19 07:40:00,25.9,17.1,29.75,ESE,103,5.0,5.0,69,0.00,,,0.00,Wunderground v.1.15,2013-02-19 12:40:00,
2013-02-19 07:50:00,26.3,17.5,29.75,ESE,103,4.0,9.0,69,0.00,,,0.00,Wunderground v.1.15,2013-02-19 12:50:00,
2013-02-19 08:00:00,26.2,17.4,29.74,ESE,103,4.0,4.0,69,0.00,,,0.00,Wunderground v.1.15,2013-02-19 13:00:00,
2013-02-19 08:05:00,26.2,17.4,29.74,ESE,103,4.0,9.0,69,0.00,,,0.00,Wunderground v.1.15,2013-02-19 13:05:00,
2013-02-19 08:15:00,26.8,18.0,29.73,ESE,103,3.0,9.0,69,0.00,,,0.00,Wunderground v.1.15,2013-02-19 13:15:00,
2013-02-19 08:25:00,27.5,18.7,29.72,ESE,103,2.0,9.0,69,0.00,,,0.00,Wunderground v.1.15,2013-02-19 13:25:00,
2013-02-19 08:30:00,27.9,19.0,29.72,ESE,103,1.0,1.0,69,0.00,,,0.00,Wunderground v.1.15,2013-02-19 13:30:00,
2013-02-19 08:35:00,28.2,19.3,29.71,ESE,103,0.0,9.0,69,0.00,,,0.00,Wunderground v.1.15,2013-02-19 13:35:00,
2013-02-19 08:40:00,28.7,21.1,29.71,SE,126,1.0,9.0,73,0.00,,,0.00,Wunderground v.1.15,2013-02-19 13:40:00,
2013-02-19 08:45:00,29.4,21.5,29.71,SE,132,3.0,9.0,72,0.00,,,0.00,Wunderground v.1.15,2013-02-19 13:45:00,
2013-02-19 08:55:00,30.1,21.8,29.71,SE,132,3.0,9.0,71,0.00,,,0.00,Wunderground v.1.15,2013-02-19 13:55:00,
2013-02-19 09:00:00,30.4,22.1,29.71,SE,138,3.0,9.0,71,0.00,,,0.00,Wunderground v.1.15,2013-02-19 14:00:00,
2013-02-19 09:10:00,31.0,22.7,29.71,ESE,114,4.0,9.0,71,0.00,,,0.00,Wunderground v.1.15,2013-02-19 14:10:00,
2013-02-19 09:15:00,31.6,23.3,29.71,SE,134,5.0,9.0,71,0.00,,,0.00,Wunderground v.1.15,2013-02-19 14:15:00,
2013-02-19 09:20:00,32.0,23.0,29.71,ESE,115,6.0,9.0,69,0.00,,,0.00,Wunderground v.1.15,2013-02-19 14:20:00,
2013-02-19 09:30:00,32.9,23.8,29.70,ESE,115,7.0,10.0,69,0.00,,,0.00,Wunderground v.1.15,2013-02-19 14:30:00,
2013-02-19 09:35:00,33.4,24.0,29.69,SE,129,7.0,10.0,68,0.00,,,0.00,Wunderground v.1.15,2013-02-19 14:35:00,
2013-02-19 09:45:00,34.0,24.5,29.68,SE,126,7.0,9.0,68,0.00,,,0.00,Wunderground v.1.15,2013-02-19 14:45:00,
2013-02-19 09:50:00,34.3,24.8,29.68,ESE,119,7.0,7.0,68,0.00,,,0.00,Wunderground v.1.15,2013-02-19 14:50:00,
2013-02-19 10:00:00,35.0,25.1,29.67,ESE,120,6.0,6.0,67,0.00,,,0.00,Wunderground v.1.15,2013-02-19 15:00:00,
2013-02-19 10:05:00,35.0,25.1,29.66,SE,124,6.0,9.0,67,0.00,,,0.00,Wunderground v.1.15,2013-02-19 15:05:00,
2013-02-19 10:10:00,35.2,25.3,29.66,SE,126,6.0,6.0,67,0.00,,,0.00,Wunderground v.1.15,2013-02-19 15:10:00,
2013-02-19 10:15:00,35.7,25.8,29.66,SE,139,6.0,9.0,67,0.00,,,0.00,Wunderground v.1.15,2013-02-19 15:15:00,
2013-02-19 10:20:00,36.0,26.1,29.65,ESE,123,7.0,9.0,67,0.00,,,0.00,Wunderground v.1.15,2013-02-19 15:20:00,
2013-02-19 10:30:00,36.8,26.1,29.65,ESE,119,9.0,10.0,65,0.00,,,0.00,Wunderground v.1.15,2013-02-19 15:30:00,
2013-02-19 10:35:00,37.0,26.3,29.65,SE,125,10.0,10.0,65,0.00,,,0.00,Wunderground v.1.15,2013-02-19 15:35:00,
2013-02-19 10:40:00,37.2,26.1,29.65,ESE,123,11.0,13.0,64,0.00,,,0.00,Wunderground v.1.15,2013-02-19 15:40:00,
2013-02-19 10:45:00,37.3,26.6,29.65,ESE,123,12.0,13.0,65,0.00,,,0.00,Wunderground v.1.15,2013-02-19 15:45:00,
2013-02-19 10:50:00,37.3,26.2,29.64,ESE,113,11.0,11.0,64,0.00,,,0.00,Wunderground v.1.15,2013-02-19 15:50:00,
2013-02-19 11:00:00,37.5,26.8,29.64,SE,134,10.0,10.0,65,0.00,,,0.00,Wunderground v.1.15,2013-02-19 16:00:00,
2013-02-19 11:05:00,37.5,26.8,29.64,ESE,117,9.0,10.0,65,0.00,,,0.00,Wunderground v.1.15,2013-02-19 16:05:00,
2013-02-19 11:10:00,37.5,26.8,29.64,SE,130,9.0,10.0,65,0.00,,,0.00,Wunderground v.1.15,2013-02-19 16:10:00,
2013-02-19 11:15:00,37.5,26.8,29.64,SE,129,9.0,10.0,65,0.00,,,0.00,Wunderground v.1.15,2013-02-19 16:15:00,
2013-02-19 11:20:00,37.5,26.8,29.63,SSE,147,9.0,12.0,65,0.00,,,0.00,Wunderground v.1.15,2013-02-19 16:20:00,
2013-02-19 11:25:00,37.5,26.8,29.63,SE,134,10.0,12.0,65,0.00,,,0.00,Wunderground v.1.15,2013-02-19 16:25:00,
2013-02-19 11:30:00,37.5,26.4,29.62,SE,127,11.0,17.0,64,0.00,,,0.00,Wunderground v.1.15,2013-02-19 16:30:00,
2013-02-19 11:35:00,37.4,26.7,29.61,SE,130,12.0,17.0,65,0.00,,,0.00,Wunderground v.1.15,2013-02-19 16:35:00,
2013-02-19 11:40:00,37.3,27.0,29.61,SSE,165,12.0,12.0,66,0.00,,,0.00,Wunderground v.1.15,2013-02-19 16:40:00,
2013-02-19 11:45:00,37.0,27.4,29.61,ESE,119,13.0,13.0,68,0.00,,,0.00,Wunderground v.1.15,2013-02-19 16:45:00,
2013-02-19 11:50:00,36.6,27.7,29.61,SE,140,14.0,14.0,70,0.00,,,0.00,Wunderground v.1.15,2013-02-19 16:50:00,
2013-02-19 11:55:00,36.4,28.2,29.61,ESE,117,15.0,15.0,72,0.00,,,0.00,Wunderground v.1.15,2013-02-19 16:55:00,
2013-02-19 12:05:00,35.9,28.7,29.60,SE,142,13.0,14.0,75,0.00,,,0.00,Wunderground v.1.15,2013-02-19 17:05:00,
2013-02-19 12:10:00,35.6,29.1,29.60,SSE,159,12.0,12.0,77,0.00,,,0.00,Wunderground v.1.15,2013-02-19 17:10:00,
2013-02-19 12:15:00,35.2,29.3,29.60,ESE,119,12.0,14.0,79,0.00,,,0.00,Wunderground v.1.15,2013-02-19 17:15:00,
2013-02-19 12:20:00,35.0,29.5,29.60,SE,139,13.0,14.0,80,0.00,,,0.00,Wunderground v.1.15,2013-02-19 17:20:00,
2013-02-19 12:25:00,34.9,29.7,29.59,SSE,150,12.0,14.0,81,0.00,,,0.00,Wunderground v.1.15,2013-02-19 17:25:00,
2013-02-19 12:30:00,34.6,29.7,29.59,SSE,151,12.0,12.0,82,0.00,,,0.00,Wunderground v.1.15,2013-02-19 17:30:00,
2013-02-19 12:35:00,34.3,30.3,29.59,SSE,155,13.0,13.0,85,0.00,,,0.00,Wunderground v.1.15,2013-02-19 17:35:00,
2013-02-19 12:40:00,34.0,30.5,29.59,SE,133,12.0,16.0,87,0.00,,,0.00,Wunderground v.1.15,2013-02-19 17:40:00,
2013-02-19 12:45:00,33.4,30.5,29.59,ESE,109,12.0,16.0,89,0.00,,,0.00,Wunderground v.1.15,2013-02-19 17:45:00,
2013-02-19 12:50:00,32.9,30.6,29.59,SE,126,13.0,13.0,91,0.00,,,0.00,Wunderground v.1.15,2013-02-19 17:50:00,
2013-02-19 12:55:00,32.6,30.8,29.59,SE,125,13.0,13.0,93,0.00,,,0.00,Wunderground v.1.15,2013-02-19 17:55:00,
2013-02-19 13:05:00,32.3,30.8,29.59,ESE,115,11.0,13.0,94,0.00,,,0.00,Wunderground v.1.15,2013-02-19 18:05:00,
2013-02-19 13:10:00,32.2,30.9,29.58,SE,129,10.0,10.0,95,0.00,,,0.00,Wunderground v.1.15,2013-02-19 18:10:00,
2013-02-19 13:15:00,32.1,30.8,29.58,SE,128,9.0,14.0,95,0.00,,,0.00,Wunderground v.1.15,2013-02-19 18:15:00,
2013-02-19 13:20:00,32.1,30.8,29.58,SSE,150,9.0,9.0,95,0.00,,,0.00,Wunderground v.1.15,2013-02-19 18:20:00,
2013-02-19 13:25:00,32.0,31.0,29.58,ESE,121,9.0,9.0,96,0.00,,,0.00,Wunderground v.1.15,2013-02-19 18:25:00,
2013-02-19 13:30:00,32.0,31.0,29.58,SE,137,9.0,12.0,96,0.00,,,0.00,Wunderground v.1.15,2013-02-19 18:30:00,
2013-02-19 13:35:00,32.0,31.0,29.57,SSE,153,9.0,12.0,96,0.00,,,0.00,Wunderground v.1.15,2013-02-19 18:35:00,
2013-02-19 13:40:00,32.0,31.0,29.57,ESE,121,9.0,9.0,96,0.00,,,0.00,Wunderground v.1.15,2013-02-19 18:40:00,
2013-02-19 13:45:00,31.9,30.9,29.57,ESE,114,9.0,10.0,96,0.00,,,0.00,Wunderground v.1.15,2013-02-19 18:45:00,
2013-02-19 13:50:00,31.9,31.1,29.57,ESE,115,9.0,11.0,97,0.00,,,0.00,Wunderground v.1.15,2013-02-19 18:50:00,
2013-02-19 13:55:00,31.9,31.1,29.56,SE,134,9.0,11.0,97,0.00,,,0.00,Wunderground v.1.15,2013-02-19 18:55:00,
2013-02-19 14:00:00,31.9,31.1,29.56,ESE,117,9.0,9.0,97,0.00,,,0.00,Wunderground v.1.15,2013-02-19 19:00:00,
2013-02-19 14:10:00,32.0,31.2,29.55,SE,124,9.0,10.0,97,0.00,,,0.01,Wunderground v.1.15,2013-02-19 19:10:00,
2013-02-19 14:15:00,32.1,31.3,29.55,SE,125,9.0,10.0,97,0.00,,,0.01,Wunderground v.1.15,2013-02-19 19:15:00,
2013-02-19 14:20:00,32.2,31.4,29.55,SE,130,9.0,9.0,97,0.00,,,0.01,Wunderground v.1.15,2013-02-19 19:20:00,
2013-02-19 14:25:00,32.2,31.4,29.55,SE,130,9.0,9.0,97,0.00,,,0.01,Wunderground v.1.15,2013-02-19 19:25:00,
2013-02-19 14:30:00,32.2,31.4,29.54,SE,142,9.0,9.0,97,0.00,,,0.01,Wunderground v.1.15,2013-02-19 19:30:00,
2013-02-19 14:39:00,32.2,31.4,29.54,SE,137,9.0,9.0,97,0.00,,,0.01,Wunderground v.1.15,2013-02-19 19:39:00,
2013-02-19 14:45:00,32.2,31.4,29.54,SE,145,9.0,9.0,97,0.00,,,0.01,Wunderground v.1.15,2013-02-19 19:45:00,
2013-02-19 14:54:00,32.3,31.5,29.53,SE,127,8.0,9.0,97,0.00,,,0.01,Wunderground v.1.15,2013-02-19 19:54:00,
2013-02-19 15:00:00,32.3,31.5,29.53,ESE,117,8.0,9.0,97,0.00,,,0.01,Wunderground v.1.15,2013-02-19 20:00:00,
2013-02-19 15:10:00,32.3,31.5,29.52,ESE,116,8.0,11.0,97,0.00,,,0.01,Wunderground v.1.15,2013-02-19 20:10:00,
2013-02-19 15:15:00,32.3,31.5,29.52,ESE,123,9.0,11.0,97,0.00,,,0.01,Wunderground v.1.15,2013-02-19 20:15:00,
2013-02-19 15:20:00,32.3,31.5,29.52,SE,142,9.0,10.0,97,0.00,,,0.01,Wunderground v.1.15,2013-02-19 20:20:00,
2013-02-19 15:25:00,32.2,31.4,29.52,ESE,115,9.0,10.0,97,0.00,,,0.01,Wunderground v.1.15,2013-02-19 20:25:00,
2013-02-19 15:30:00,32.2,31.4,29.52,SSE,150,9.0,9.0,97,0.00,,,0.01,Wunderground v.1.15,2013-02-19 20:30:00,
2013-02-19 15:35:00,32.2,31.4,29.52,SE,128,8.0,9.0,97,0.00,,,0.01,Wunderground v.1.15,2013-02-19 20:35:00,
2013-02-19 15:45:00,32.1,31.3,29.51,SE,138,8.0,9.0,97,0.00,,,0.01,Wunderground v.1.15,2013-02-19 20:45:00,
2013-02-19 15:50:00,32.1,31.3,29.51,SE,130,8.0,9.0,97,0.00,,,0.01,Wunderground v.1.15,2013-02-19 20:50:00,
2013-02-19 15:55:00,32.1,31.3,29.51,ESE,119,8.0,10.0,97,0.00,,,0.01,Wunderground v.1.15,2013-02-19 20:55:00,
2013-02-19 16:00:00,32.1,31.3,29.51,SE,124,8.0,9.0,97,0.00,,,0.01,Wunderground v.1.15,2013-02-19 21:00:00,
2013-02-19 16:05:00,32.0,31.5,29.50,SE,134,8.0,9.0,98,0.00,,,0.01,Wunderground v.1.15,2013-02-19 21:05:00,
2013-02-19 16:10:00,32.0,31.5,29.50,SE,127,7.0,7.0,98,0.00,,,0.01,Wunderground v.1.15,2013-02-19 21:10:00,
2013-02-19 16:15:00,32.0,31.5,29.50,SE,132,7.0,9.0,98,0.00,,,0.01,Wunderground v.1.15,2013-02-19 21:15:00,
2013-02-19 16:20:00,32.0,31.5,29.50,ESE,121,6.0,9.0,98,0.00,,,0.01,Wunderground v.1.15,2013-02-19 21:20:00,
2013-02-19 16:25:00,32.0,31.2,29.49,SE,124,6.0,9.0,97,0.00,,,0.01,Wunderground v.1.15,2013-02-19 21:25:00,
2013-02-19 16:30:00,32.0,31.5,29.50,SE,132,6.0,6.0,98,0.00,,,0.01,Wunderground v.1.15,2013-02-19 21:30:00,
2013-02-19 16:35:00,32.0,31.5,29.50,SSE,148,6.0,9.0,98,0.00,,,0.01,Wunderground v.1.15,2013-02-19 21:35:00,
2013-02-19 16:45:00,32.0,31.5,29.49,SE,140,5.0,9.0,98,0.00,,,0.02,Wunderground v.1.15,2013-02-19 21:45:00,
2013-02-19 16:50:00,32.0,31.5,29.49,SE,146,5.0,9.0,98,0.00,,,0.02,Wunderground v.1.15,2013-02-19 21:50:00,
2013-02-19 16:55:00,32.0,31.5,29.49,SE,126,5.0,9.0,98,0.00,,,0.02,Wunderground v.1.15,2013-02-19 21:55:00,
2013-02-19 17:00:00,32.0,31.5,29.49,SE,136,5.0,9.0,98,0.00,,,0.02,Wunderground v.1.15,2013-02-19 22:00:00,
2013-02-19 17:05:00,32.0,31.5,29.49,SE,146,5.0,9.0,98,0.00,,,0.02,Wunderground v.1.15,2013-02-19 22:05:00,
2013-02-19 17:10:00,32.0,31.5,29.49,SE,141,5.0,9.0,98,0.00,,,0.02,Wunderground v.1.15,2013-02-19 22:10:00,
2013-02-19 17:15:00,32.0,31.5,29.49,SE,135,5.0,9.0,98,0.00,,,0.02,Wunderground v.1.15,2013-02-19 22:15:00,
2013-02-19 17:20:00,32.0,31.5,29.49,SE,127,5.0,5.0,98,0.00,,,0.02,Wunderground v.1.15,2013-02-19 22:20:00,
2013-02-19 17:30:00,32.0,31.5,29.49,SE,139,5.0,9.0,98,0.00,,,0.02,Wunderground v.1.15,2013-02-19 22:30:00,
2013-02-19 17:35:00,32.0,31.5,29.49,ESE,120,5.0,9.0,98,0.00,,,0.02,Wunderground v.1.15,2013-02-19 22:35:00,
2013-02-19 17:40:00,32.1,31.6,29.49,SE,134,5.0,5.0,98,0.00,,,0.02,Wunderground v.1.15,2013-02-19 22:40:00,
2013-02-19 17:50:00,32.1,31.6,29.50,SSE,147,4.0,9.0,98,0.00,,,0.02,Wunderground v.1.15,2013-02-19 22:50:00,
2013-02-19 17:55:00,32.1,31.6,29.49,SE,138,4.0,9.0,98,0.00,,,0.02,Wunderground v.1.15,2013-02-19 22:55:00,
2013-02-19 18:00:00,32.1,31.6,29.50,SE,138,4.0,9.0,98,0.00,,,0.02,Wunderground v.1.15,2013-02-19 23:00:00,
2013-02-19 18:05:00,32.1,31.6,29.50,SSE,148,4.0,9.0,98,0.00,,,0.02,Wunderground v.1.15,2013-02-19 23:05:00,
2013-02-19 18:10:00,32.1,31.6,29.50,SE,139,4.0,9.0,98,0.00,,,0.02,Wunderground v.1.15,2013-02-19 23:10:00,
2013-02-19 18:20:00,32.2,31.7,29.50,SE,134,4.0,9.0,98,0.00,,,0.02,Wunderground v.1.15,2013-02-19 23:20:00,
2013-02-19 18:25:00,32.3,31.8,29.50,SSE,151,5.0,9.0,98,0.00,,,0.02,Wunderground v.1.15,2013-02-19 23:25:00,
2013-02-19 18:30:00,32.4,31.9,29.50,SSE,167,5.0,5.0,98,0.00,,,0.02,Wunderground v.1.15,2013-02-19 23:30:00,
2013-02-19 18:35:00,32.5,32.0,29.50,SSE,148,5.0,9.0,98,0.00,,,0.02,Wunderground v.1.15,2013-02-19 23:35:00,
2013-02-19 18:39:00,32.5,32.0,29.50,SE,144,4.0,9.0,98,0.00,,,0.02,Wunderground v.1.15,2013-02-19 23:39:00,
2013-02-19 18:45:00,32.5,32.0,29.50,SE,142,4.0,9.0,98,0.00,,,0.02,Wunderground v.1.15,2013-02-19 23:45:00,
2013-02-19 18:50:00,32.5,32.0,29.51,SE,146,4.0,9.0,98,0.00,,,0.02,Wunderground v.1.15,2013-02-19 23:50:00,
2013-02-19 18:55:00,32.5,32.0,29.51,SE,146,4.0,9.0,98,0.00,,,0.02,Wunderground v.1.15,2013-02-19 23:55:00,
2013-02-19 19:00:00,32.5,32.0,29.51,SE,137,5.0,5.0,98,0.00,,,0.02,Wunderground v.1.15,2013-02-20 00:00:00,
2013-02-19 19:05:00,32.5,32.0,29.51,SSE,159,4.0,9.0,98,0.00,,,0.02,Wunderground v.1.15,2013-02-20 00:05:00,
2013-02-19 19:10:00,32.6,32.1,29.51,SSE,150,4.0,9.0,98,0.00,,,0.03,Wunderground v.1.15,2013-02-20 00:10:00,
2013-02-19 19:15:00,32.9,32.4,29.51,SSE,161,4.0,9.0,98,0.00,,,0.03,Wunderground v.1.15,2013-02-20 00:15:00,
2013-02-19 19:25:00,33.0,32.5,29.50,SSE,161,3.0,9.0,98,0.00,,,0.03,Wunderground v.1.15,2013-02-20 00:25:00,
2013-02-19 19:30:00,33.0,32.5,29.50,South,169,3.0,9.0,98,0.00,,,0.03,Wunderground v.1.15,2013-02-20 00:30:00,
2013-02-19 19:35:00,33.1,32.6,29.50,SSE,155,3.0,9.0,98,0.00,,,0.03,Wunderground v.1.15,2013-02-20 00:35:00,
2013-02-19 19:40:00,33.1,32.6,29.50,South,171,3.0,3.0,98,0.00,,,0.03,Wunderground v.1.15,2013-02-20 00:40:00,
2013-02-19 19:44:00,33.1,32.6,29.51,South,172,2.0,9.0,98,0.00,,,0.03,Wunderground v.1.15,2013-02-20 00:44:00,
2013-02-19 19:50:00,33.1,32.6,29.52,WNW,284,2.0,11.0,98,0.00,,,0.03,Wunderground v.1.15,2013-02-20 00:50:00,
2013-02-19 19:55:00,31.7,30.9,29.52,NW,314,9.0,17.0,97,0.00,,,0.03,Wunderground v.1.15,2013-02-20 00:55:00,
2013-02-19 20:00:00,31.2,30.4,29.53,NNW,333,14.0,16.0,97,0.00,,,0.03,Wunderground v.1.15,2013-02-20 01:00:00,
2013-02-19 20:05:00,31.0,30.2,29.53,NW,317,13.0,16.0,97,0.00,,,0.03,Wunderground v.1.15,2013-02-20 01:05:00,
2013-02-19 20:10:00,30.7,30.0,29.52,NNW,342,10.0,15.0,97,0.00,,,0.03,Wunderground v.1.15,2013-02-20 01:10:00,
2013-02-19 20:15:00,30.2,29.5,29.53,WNW,297,10.0,16.0,97,0.00,,,0.03,Wunderground v.1.15,2013-02-20 01:15:00,
2013-02-19 20:25:00,29.6,29.1,29.53,WNW,289,14.0,14.0,98,0.00,,,0.03,Wunderground v.1.15,2013-02-20 01:25:00,
2013-02-19 20:30:00,29.2,28.5,29.54,WNW,301,13.0,13.0,97,0.00,,,0.03,Wunderground v.1.15,2013-02-20 01:30:00,
2013-02-19 20:35:00,29.1,28.4,29.54,West,281,13.0,14.0,97,0.00,,,0.03,Wunderground v.1.15,2013-02-20 01:35:00,
2013-02-19 20:40:00,28.9,28.2,29.54,NE,35,12.0,12.0,97,0.00,,,0.03,Wunderground v.1.15,2013-02-20 01:40:00,
2013-02-19 20:45:00,29.0,28.3,29.54,North,5,11.0,17.0,97,0.00,,,0.03,Wunderground v.1.15,2013-02-20 01:45:00,
2013-02-19 20:50:00,28.8,28.1,29.54,North,11,11.0,11.0,97,0.00,,,0.03,Wunderground v.1.15,2013-02-20 01:50:00,
2013-02-19 20:55:00,28.9,28.2,29.54,NE,41,10.0,11.0,97,0.00,,,0.03,Wunderground v.1.15,2013-02-20 01:55:00,
2013-02-19 21:00:00,28.9,28.2,29.55,East,86,6.0,9.0,97,0.00,,,0.03,Wunderground v.1.15,2013-02-20 02:00:00,
2013-02-19 21:05:00,28.7,28.0,29.55,WNW,288,7.0,9.0,97,0.00,,,0.03,Wunderground v.1.15,2013-02-20 02:05:00,
2013-02-19 21:10:00,28.7,28.0,29.55,North,355,7.0,9.0,97,0.00,,,0.03,Wunderground v.1.15,2013-02-20 02:10:00,
2013-02-19 21:15:00,28.4,27.7,29.55,WNW,299,7.0,11.0,97,0.00,,,0.03,Wunderground v.1.15,2013-02-20 02:15:00,
2013-02-19 21:20:00,28.3,27.6,29.55,NNW,348,6.0,6.0,97,0.00,,,0.03,Wunderground v.1.15,2013-02-20 02:20:00,
2013-02-19 21:30:00,27.9,27.2,29.55,ENE,73,4.0,9.0,97,0.00,,,0.03,Wunderground v.1.15,2013-02-20 02:30:00,
2013-02-19 21:35:00,27.6,26.9,29.55,WNW,288,4.0,9.0,97,0.00,,,0.03,Wunderground v.1.15,2013-02-20 02:35:00,
2013-02-19 21:40:00,27.3,26.6,29.55,West,275,4.0,10.0,97,0.00,,,0.03,Wunderground v.1.15,2013-02-20 02:40:00,
2013-02-19 21:45:00,27.1,26.4,29.55,WSW,257,4.0,10.0,97,0.00,,,0.03,Wunderground v.1.15,2013-02-20 02:45:00,
2013-02-19 21:50:00,27.1,26.4,29.55,SE,134,3.0,9.0,97,0.00,,,0.03,Wunderground v.1.15,2013-02-20 02:50:00,
2013-02-19 21:59:00,27.2,26.5,29.56,WNW,285,3.0,9.0,97,0.00,,,0.03,Wunderground v.1.15,2013-02-20 02:59:00,
2013-02-19 22:05:00,27.1,26.4,29.56,WNW,296,3.0,9.0,97,0.00,,,0.03,Wunderground v.1.15,2013-02-20 03:05:00,
2013-02-19 22:10:00,27.0,26.3,29.56,WNW,298,4.0,9.0,97,0.00,,,0.03,Wunderground v.1.15,2013-02-20 03:10:00,
2013-02-19 22:15:00,27.0,26.0,29.56,West,274,4.0,9.0,96,0.00,,,0.03,Wunderground v.1.15,2013-02-20 03:15:00,
2013-02-19 22:20:00,26.9,25.9,29.55,WNW,291,4.0,9.0,96,0.00,,,0.03,Wunderground v.1.15,2013-02-20 03:20:00,
2013-02-19 22:30:00,27.0,26.0,29.55,WNW,294,3.0,9.0,96,0.00,,,0.03,Wunderground v.1.15,2013-02-20 03:30:00,
2013-02-19 22:35:00,26.9,25.9,29.55,WNW,289,3.0,9.0,96,0.00,,,0.03,Wunderground v.1.15,2013-02-20 03:35:00,
2013-02-19 22:40:00,26.8,25.8,29.55,WNW,282,5.0,9.0,96,0.00,,,0.03,Wunderground v.1.15,2013-02-20 03:40:00,
2013-02-19 22:45:00,26.8,25.6,29.55,West,277,6.0,9.0,95,0.00,,,0.03,Wunderground v.1.15,2013-02-20 03:45:00,
2013-02-19 22:50:00,26.9,25.7,29.55,WNW,300,7.0,9.0,95,0.00,,,0.03,Wunderground v.1.15,2013-02-20 03:50:00,
2013-02-19 22:55:00,27.0,25.8,29.55,WNW,291,9.0,9.0,95,0.00,,,0.03,Wunderground v.1.15,2013-02-20 03:55:00,
2013-02-19 23:05:00,26.9,25.7,29.54,NW,305,6.0,9.0,95,0.00,,,0.03,Wunderground v.1.15,2013-02-20 04:05:00,
2013-02-19 23:10:00,27.0,25.8,29.54,NW,311,7.0,7.0,95,0.00,,,0.03,Wunderground v.1.15,2013-02-20 04:10:00,
2013-02-19 23:15:00,27.1,25.9,29.54,WNW,287,6.0,9.0,95,0.00,,,0.03,Wunderground v.1.15,2013-02-20 04:15:00,
2013-02-19 23:19:00,26.9,25.4,29.55,WNW,302,6.0,9.0,94,0.00,,,0.03,Wunderground v.1.15,2013-02-20 04:19:00,
2013-02-19 23:25:00,26.8,25.3,29.55,NNW,327,7.0,9.0,94,0.00,,,0.03,Wunderground v.1.15,2013-02-20 04:25:00,
2013-02-19 23:35:00,26.7,25.2,29.55,WNW,284,10.0,10.0,94,0.00,,,0.03,Wunderground v.1.15,2013-02-20 04:35:00,
2013-02-19 23:40:00,26.4,24.7,29.55,WNW,295,12.0,22.0,93,0.00,,,0.03,Wunderground v.1.15,2013-02-20 04:40:00,
2013-02-19 23:45:00,26.1,24.4,29.56,North,5,15.0,22.0,93,0.00,,,0.03,Wunderground v.1.15,2013-02-20 04:45:00,
2013-02-19 23:50:00,25.8,23.8,29.55,North,355,15.0,15.0,92,0.00,,,0.03,Wunderground v.1.15,2013-02-20 04:50:00,
2013-02-19 23:55:00,25.5,23.5,29.55,WNW,299,14.0,17.0,92,0.00,,,0.03,Wunderground v.1.15,2013-02-20 04:55:00,